Location: White Ridge parking lot
(35.4984°N, 106.8413°W)
Time: 18:27:44
(UTC-06:00)

ITAMSAT 1 - Pass Details

Date: 21 September 2019
Orbit: 784 x 797 km, 98.9° (Epoch: 15 October)

Event Time Altitude Azimuth Distance (km) Brightness Sun altitude
Rises 06:24:10 0° 13° (NNE) 3,278 11.1 -7.0°
Reaches altitude 10° 06:26:29 10° 14° (NNE) 2,347 10.4 -6.5°
Maximum altitude 06:31:41 86° 105° (ESE) 792 7.8 -5.5°
Drops below altitude 10° 06:36:52 10° 193° (SSW) 2,340 10.0 -4.4°
Sets 06:39:10 0° 194° (SSW) 3,267 10.7 -3.9°
